Time,TemperatureF,DewpointF,PressureIn,WindDirection,WindDirectionDegrees,WindSpeedMPH,WindSpeedGustMPH,Humidity,HourlyPrecipIn,Conditions,Clouds,dailyrainin,SolarRadiationWatts/m^2,SoftwareType,DateUTC
2013-08-31 00:04:00,73.2,62.4,29.85,SE,126,0.0,0.0,69,0.00,,,0.00,0.0,meteobridge,2013-08-31 05:04:00,
2013-08-31 00:10:00,73.0,62.6,29.85,SE,126,0.0,0.0,70,0.00,,,0.00,0.0,meteobridge,2013-08-31 05:10:00,
2013-08-31 00:17:00,72.9,62.4,29.85,SE,126,0.0,0.0,70,0.00,,,0.00,0.0,meteobridge,2013-08-31 05:17:00,
2013-08-31 00:23:00,72.7,62.8,29.85,SE,126,0.0,0.0,71,0.00,,,0.00,0.0,meteobridge,2013-08-31 05:23:00,
2013-08-31 00:29:00,72.3,62.8,29.85,SE,126,0.0,0.0,72,0.00,,,0.00,0.0,meteobridge,2013-08-31 05:29:00,
2013-08-31 00:36:00,72.3,62.8,29.85,SE,126,0.0,0.0,72,0.00,,,0.00,0.0,meteobridge,2013-08-31 05:36:00,
2013-08-31 00:42:00,72.7,63.9,29.85,SE,126,0.0,0.0,74,0.00,,,0.00,0.0,meteobridge,2013-08-31 05:42:00,
2013-08-31 00:48:00,73.0,63.5,29.85,SE,126,0.0,0.0,72,0.00,,,0.00,0.0,meteobridge,2013-08-31 05:48:00,
2013-08-31 00:55:00,73.8,64.6,29.85,SE,126,0.0,0.9,73,0.00,,,0.00,0.0,meteobridge,2013-08-31 05:55:00,
2013-08-31 01:01:00,74.7,64.6,29.85,SE,126,0.0,0.9,71,0.00,,,0.00,0.0,meteobridge,2013-08-31 06:01:00,
2013-08-31 01:07:00,75.2,65.1,29.85,SE,126,0.0,0.9,71,0.00,,,0.00,0.0,meteobridge,2013-08-31 06:07:00,
2013-08-31 01:13:00,75.7,65.7,29.85,SE,126,0.9,0.9,71,0.00,,,0.00,0.0,meteobridge,2013-08-31 06:13:00,
2013-08-31 01:20:00,76.3,65.8,29.86,SE,126,0.0,0.9,70,0.00,,,0.00,0.0,meteobridge,2013-08-31 06:20:00,
2013-08-31 01:26:00,76.8,66.2,29.85,SE,126,0.0,0.9,70,0.00,,,0.00,0.0,meteobridge,2013-08-31 06:26:00,
2013-08-31 01:32:00,77.2,66.6,29.86,SE,126,0.0,0.0,70,0.00,,,0.00,0.0,meteobridge,2013-08-31 06:32:00,
2013-08-31 01:38:00,77.4,66.7,29.86,WSW,254,0.9,2.0,70,0.00,,,0.00,0.0,meteobridge,2013-08-31 06:38:00,
2013-08-31 01:44:00,77.7,66.7,29.86,WSW,254,0.0,0.9,69,0.00,,,0.00,0.0,meteobridge,2013-08-31 06:44:00,
2013-08-31 01:50:00,77.9,66.9,29.86,West,259,0.0,0.9,69,0.00,,,0.00,0.0,meteobridge,2013-08-31 06:50:00,
2013-08-31 01:57:00,78.1,67.1,29.86,West,259,0.0,0.9,69,0.00,,,0.00,0.0,meteobridge,2013-08-31 06:57:00,
2013-08-31 02:03:00,78.1,67.1,29.86,West,259,0.9,0.9,69,0.00,,,0.00,0.0,meteobridge,2013-08-31 07:03:00,
2013-08-31 02:09:00,78.3,67.3,29.86,WSW,254,2.0,2.0,69,0.00,,,0.00,0.0,meteobridge,2013-08-31 07:09:00,
2013-08-31 02:15:00,78.4,67.5,29.85,WSW,242,2.0,2.9,69,0.00,,,0.00,0.0,meteobridge,2013-08-31 07:15:00,
2013-08-31 02:21:00,78.4,67.5,29.86,WSW,240,0.0,2.9,69,0.00,,,0.00,0.0,meteobridge,2013-08-31 07:21:00,
2013-08-31 02:28:00,78.4,67.5,29.86,WSW,246,0.9,2.0,69,0.00,,,0.00,0.0,meteobridge,2013-08-31 07:28:00,
2013-08-31 02:34:00,78.6,67.6,29.86,WSW,244,0.0,2.9,69,0.00,,,0.00,0.0,meteobridge,2013-08-31 07:34:00,
2013-08-31 02:40:00,78.8,67.8,29.86,WSW,245,0.9,2.9,69,0.00,,,0.00,0.0,meteobridge,2013-08-31 07:40:00,
2013-08-31 02:46:00,79.0,68.0,29.86,SW,225,0.9,4.0,69,0.00,,,0.00,0.0,meteobridge,2013-08-31 07:46:00,
2013-08-31 02:52:00,79.0,68.0,29.86,SW,230,0.0,2.9,69,0.00,,,0.00,0.0,meteobridge,2013-08-31 07:52:00,
2013-08-31 02:59:00,79.0,68.0,29.86,SW,229,4.0,4.0,69,0.00,,,0.00,0.0,meteobridge,2013-08-31 07:59:00,
2013-08-31 03:05:00,79.0,68.0,29.86,WSW,252,0.0,2.0,69,0.00,,,0.00,0.0,meteobridge,2013-08-31 08:05:00,
2013-08-31 03:11:00,79.0,68.0,29.87,WSW,241,0.0,2.0,69,0.00,,,0.00,0.0,meteobridge,2013-08-31 08:11:00,
2013-08-31 03:17:00,78.6,68.0,29.86,WSW,238,0.0,2.0,70,0.00,,,0.00,0.0,meteobridge,2013-08-31 08:17:00,
2013-08-31 03:24:00,78.6,68.0,29.87,West,259,0.9,0.9,70,0.00,,,0.00,0.0,meteobridge,2013-08-31 08:24:00,
2013-08-31 03:30:00,78.4,67.8,29.87,WSW,248,0.9,2.9,70,0.00,,,0.00,0.0,meteobridge,2013-08-31 08:30:00,
2013-08-31 03:36:00,78.3,67.6,29.87,WSW,248,0.0,2.0,70,0.00,,,0.00,0.0,meteobridge,2013-08-31 08:36:00,
2013-08-31 03:42:00,78.3,68.0,29.87,WSW,248,0.9,2.0,71,0.00,,,0.00,0.0,meteobridge,2013-08-31 08:42:00,
2013-08-31 03:48:00,78.1,67.8,29.87,WSW,238,0.0,2.0,71,0.00,,,0.00,0.0,meteobridge,2013-08-31 08:48:00,
2013-08-31 03:55:00,78.1,67.8,29.87,WSW,238,0.9,2.0,71,0.00,,,0.00,0.0,meteobridge,2013-08-31 08:55:00,
2013-08-31 04:01:00,77.9,68.2,29.87,WSW,237,2.9,2.9,72,0.00,,,0.00,0.0,meteobridge,2013-08-31 09:01:00,
2013-08-31 04:07:00,77.7,68.0,29.87,SW,236,0.0,2.0,72,0.00,,,0.00,0.0,meteobridge,2013-08-31 09:07:00,
2013-08-31 04:13:00,77.5,67.8,29.87,SW,236,0.0,0.9,72,0.00,,,0.00,0.0,meteobridge,2013-08-31 09:13:00,
2013-08-31 04:19:00,77.5,67.8,29.87,West,259,0.0,0.9,72,0.00,,,0.00,0.0,meteobridge,2013-08-31 09:19:00,
2013-08-31 04:25:00,77.4,68.0,29.87,WSW,246,0.0,2.0,73,0.00,,,0.00,0.0,meteobridge,2013-08-31 09:25:00,
2013-08-31 04:32:00,77.4,68.0,29.87,WSW,246,0.0,0.0,73,0.00,,,0.00,0.0,meteobridge,2013-08-31 09:32:00,
2013-08-31 04:38:00,77.2,67.8,29.87,WSW,246,0.0,0.9,73,0.00,,,0.00,0.0,meteobridge,2013-08-31 09:38:00,
2013-08-31 04:44:00,76.8,67.5,29.87,WSW,246,0.0,0.9,73,0.00,,,0.00,0.0,meteobridge,2013-08-31 09:44:00,
2013-08-31 04:51:00,76.6,67.6,29.87,WSW,246,0.0,0.9,74,0.00,,,0.00,0.0,meteobridge,2013-08-31 09:51:00,
2013-08-31 04:57:00,76.3,67.8,29.87,WSW,246,0.0,0.9,75,0.00,,,0.00,0.0,meteobridge,2013-08-31 09:57:00,
2013-08-31 05:03:00,75.9,67.8,29.87,WSW,246,0.0,0.9,76,0.00,,,0.00,0.0,meteobridge,2013-08-31 10:03:00,
2013-08-31 05:10:00,75.9,67.8,29.87,WSW,250,0.0,2.0,76,0.00,,,0.00,0.0,meteobridge,2013-08-31 10:10:00,
2013-08-31 05:16:00,75.7,67.6,29.86,WSW,251,0.0,0.9,76,0.00,,,0.00,0.0,meteobridge,2013-08-31 10:16:00,
2013-08-31 05:22:00,75.7,68.0,29.86,WSW,251,0.0,0.9,77,0.00,,,0.00,0.0,meteobridge,2013-08-31 10:22:00,
2013-08-31 05:28:00,75.6,67.8,29.87,WSW,251,0.0,0.9,77,0.00,,,0.00,0.0,meteobridge,2013-08-31 10:28:00,
2013-08-31 05:35:00,75.4,68.0,29.86,WSW,242,0.0,2.0,78,0.00,,,0.00,0.0,meteobridge,2013-08-31 10:35:00,
2013-08-31 05:41:00,75.2,67.8,29.86,WSW,242,0.0,0.9,78,0.00,,,0.00,0.0,meteobridge,2013-08-31 10:41:00,
2013-08-31 05:47:00,75.0,67.6,29.87,WSW,242,0.9,0.9,78,0.00,,,0.00,0.0,meteobridge,2013-08-31 10:47:00,
2013-08-31 05:54:00,74.8,67.5,29.87,WSW,242,0.0,0.0,78,0.00,,,0.00,0.0,meteobridge,2013-08-31 10:54:00,
2013-08-31 06:00:00,74.8,67.8,29.87,WSW,242,0.0,0.9,79,0.00,,,0.00,0.0,meteobridge,2013-08-31 11:00:00,
2013-08-31 06:06:00,74.7,67.6,29.87,WSW,242,0.0,0.0,79,0.00,,,0.00,0.0,meteobridge,2013-08-31 11:06:00,
2013-08-31 06:13:00,74.7,67.6,29.87,WSW,242,0.0,0.9,79,0.00,,,0.00,0.0,meteobridge,2013-08-31 11:13:00,
2013-08-31 06:19:00,74.5,67.5,29.87,WSW,242,0.0,0.0,79,0.00,,,0.00,0.0,meteobridge,2013-08-31 11:19:00,
2013-08-31 06:25:00,74.5,67.5,29.87,WSW,242,0.0,0.9,79,0.00,,,0.00,0.0,meteobridge,2013-08-31 11:25:00,
2013-08-31 06:31:00,74.1,67.1,29.87,WSW,242,0.0,0.0,79,0.00,,,0.00,0.0,meteobridge,2013-08-31 11:31:00,
2013-08-31 06:38:00,74.1,67.6,29.87,WSW,242,0.0,0.9,80,0.00,,,0.00,0.0,meteobridge,2013-08-31 11:38:00,
2013-08-31 06:44:00,74.1,67.1,29.87,WSW,242,0.9,0.9,79,0.00,,,0.00,0.0,meteobridge,2013-08-31 11:44:00,
2013-08-31 06:50:00,74.1,67.1,29.87,WSW,242,0.0,2.0,79,0.00,,,0.00,0.0,meteobridge,2013-08-31 11:50:00,
2013-08-31 06:56:00,74.5,67.5,29.87,WSW,242,0.0,4.0,79,0.00,,,0.00,0.0,meteobridge,2013-08-31 11:56:00,
2013-08-31 07:02:00,74.5,67.5,29.88,WSW,242,0.0,0.9,79,0.00,,,0.00,0.0,meteobridge,2013-08-31 12:02:00,
2013-08-31 07:09:00,74.5,67.5,29.88,SW,234,0.9,2.9,79,0.00,,,0.00,5.0,meteobridge,2013-08-31 12:09:00,
2013-08-31 07:15:00,74.5,67.5,29.88,SW,234,0.0,0.9,79,0.00,,,0.00,9.0,meteobridge,2013-08-31 12:15:00,
2013-08-31 07:21:00,74.5,67.5,29.88,WSW,246,0.9,2.0,79,0.00,,,0.00,14.0,meteobridge,2013-08-31 12:21:00,
2013-08-31 07:27:00,74.5,67.8,29.88,WSW,242,0.9,2.0,80,0.00,,,0.00,19.0,meteobridge,2013-08-31 12:27:00,
2013-08-31 07:33:00,74.7,68.0,29.88,WSW,240,0.9,2.9,80,0.00,,,0.00,26.0,meteobridge,2013-08-31 12:33:00,
2013-08-31 07:40:00,74.8,68.2,29.88,WSW,252,0.0,2.0,80,0.00,,,0.00,33.0,meteobridge,2013-08-31 12:40:00,
2013-08-31 07:46:00,75.0,68.0,29.88,WSW,258,0.9,2.0,79,0.00,,,0.00,44.0,meteobridge,2013-08-31 12:46:00,
2013-08-31 07:52:00,75.4,68.4,29.89,SW,217,0.9,2.0,79,0.00,,,0.00,60.0,meteobridge,2013-08-31 12:52:00,
2013-08-31 07:58:00,75.7,68.4,29.89,WSW,257,0.9,2.9,78,0.00,,,0.00,76.0,meteobridge,2013-08-31 12:58:00,
2013-08-31 08:04:00,76.1,68.7,29.89,SW,232,0.9,0.9,78,0.00,,,0.00,91.0,meteobridge,2013-08-31 13:04:00,
2013-08-31 08:11:00,76.6,68.9,29.89,WSW,238,2.9,2.9,77,0.00,,,0.00,113.0,meteobridge,2013-08-31 13:11:00,
2013-08-31 08:17:00,77.2,69.4,29.89,WSW,248,0.0,2.9,77,0.00,,,0.00,135.0,meteobridge,2013-08-31 13:17:00,
2013-08-31 08:23:00,77.5,69.4,29.89,SW,234,0.9,2.9,76,0.00,,,0.00,158.0,meteobridge,2013-08-31 13:23:00,
2013-08-31 08:29:00,78.1,69.4,29.89,SW,227,2.0,4.0,75,0.00,,,0.00,181.0,meteobridge,2013-08-31 13:29:00,
2013-08-31 08:35:00,78.4,69.4,29.89,SW,236,2.9,6.0,74,0.00,,,0.00,204.0,meteobridge,2013-08-31 13:35:00,
2013-08-31 08:41:00,79.2,69.3,29.90,SW,233,0.9,4.0,72,0.00,,,0.00,223.0,meteobridge,2013-08-31 13:41:00,
2013-08-31 08:47:00,79.5,69.3,29.90,SW,225,0.0,2.9,71,0.00,,,0.00,244.0,meteobridge,2013-08-31 13:47:00,
2013-08-31 08:53:00,80.2,69.6,29.90,SW,215,0.0,4.0,70,0.00,,,0.00,267.0,meteobridge,2013-08-31 13:53:00,
2013-08-31 08:59:00,81.0,69.4,29.90,SW,220,2.9,6.0,68,0.00,,,0.00,292.0,meteobridge,2013-08-31 13:59:00,
2013-08-31 09:06:00,81.5,69.1,29.90,WSW,240,2.9,4.0,66,0.00,,,0.00,313.0,meteobridge,2013-08-31 14:06:00,
2013-08-31 09:12:00,82.0,68.7,29.90,SW,227,2.0,6.0,64,0.00,,,0.00,334.0,meteobridge,2013-08-31 14:12:00,
2013-08-31 09:18:00,82.4,68.5,29.90,SSW,194,0.9,4.0,63,0.00,,,0.00,353.0,meteobridge,2013-08-31 14:18:00,
2013-08-31 09:24:00,82.9,68.5,29.90,West,277,2.0,2.9,62,0.00,,,0.00,369.0,meteobridge,2013-08-31 14:24:00,
2013-08-31 09:30:00,83.5,68.2,29.90,West,272,2.0,4.9,60,0.00,,,0.00,390.0,meteobridge,2013-08-31 14:30:00,
2013-08-31 09:36:00,83.7,68.4,29.89,WSW,239,2.0,4.9,60,0.00,,,0.00,399.0,meteobridge,2013-08-31 14:36:00,
2013-08-31 09:42:00,84.4,68.5,29.89,WNW,300,0.0,4.9,59,0.00,,,0.00,445.0,meteobridge,2013-08-31 14:42:00,
2013-08-31 09:48:00,84.9,68.5,29.89,WNW,289,0.0,2.9,58,0.00,,,0.00,464.0,meteobridge,2013-08-31 14:48:00,
2013-08-31 09:54:00,85.6,68.7,29.89,SW,221,2.9,6.0,57,0.00,,,0.00,445.0,meteobridge,2013-08-31 14:54:00,
2013-08-31 10:01:00,85.8,68.4,29.89,WSW,251,0.9,4.9,56,0.00,,,0.00,506.0,meteobridge,2013-08-31 15:01:00,
2013-08-31 10:07:00,85.8,68.4,29.89,West,261,2.9,6.9,56,0.00,,,0.00,522.0,meteobridge,2013-08-31 15:07:00,
2013-08-31 10:13:00,86.4,68.4,29.89,WSW,252,0.9,6.9,55,0.00,,,0.00,541.0,meteobridge,2013-08-31 15:13:00,
2013-08-31 10:19:00,86.7,68.0,29.89,SW,232,2.0,6.9,54,0.00,,,0.00,563.0,meteobridge,2013-08-31 15:19:00,
2013-08-31 10:25:00,87.4,68.7,29.89,WNW,282,2.0,4.9,54,0.00,,,0.00,584.0,meteobridge,2013-08-31 15:25:00,
2013-08-31 10:31:00,88.0,68.2,29.89,South,173,2.9,6.9,52,0.00,,,0.00,599.0,meteobridge,2013-08-31 15:31:00,
2013-08-31 10:37:00,88.5,68.0,29.89,NW,313,2.9,8.1,51,0.00,,,0.00,613.0,meteobridge,2013-08-31 15:37:00,
2013-08-31 10:43:00,88.7,68.2,29.89,WNW,300,4.9,6.9,51,0.00,,,0.00,610.0,meteobridge,2013-08-31 15:43:00,
2013-08-31 10:49:00,88.9,68.4,29.89,SW,230,6.0,6.0,51,0.00,,,0.00,656.0,meteobridge,2013-08-31 15:49:00,
2013-08-31 10:56:00,89.1,68.0,29.89,West,270,0.9,6.0,50,0.00,,,0.00,668.0,meteobridge,2013-08-31 15:56:00,
2013-08-31 11:02:00,89.4,68.4,29.89,West,278,0.9,4.0,50,0.00,,,0.00,689.0,meteobridge,2013-08-31 16:02:00,
2013-08-31 11:08:00,89.4,67.8,29.89,WSW,244,0.9,6.9,49,0.00,,,0.00,700.0,meteobridge,2013-08-31 16:08:00,
2013-08-31 11:14:00,90.1,67.8,29.89,SW,227,0.9,4.9,48,0.00,,,0.00,717.0,meteobridge,2013-08-31 16:14:00,
2013-08-31 11:20:00,90.7,68.4,29.88,WSW,257,6.0,8.1,48,0.00,,,0.00,737.0,meteobridge,2013-08-31 16:20:00,
2013-08-31 11:26:00,91.2,67.5,29.88,SW,219,0.0,8.1,46,0.00,,,0.00,745.0,meteobridge,2013-08-31 16:26:00,
2013-08-31 11:32:00,91.9,67.6,29.88,WSW,253,4.0,6.0,45,0.00,,,0.00,761.0,meteobridge,2013-08-31 16:32:00,
2013-08-31 11:38:00,92.5,68.0,29.88,SW,229,2.0,4.9,45,0.00,,,0.00,775.0,meteobridge,2013-08-31 16:38:00,
2013-08-31 11:44:00,92.8,67.1,29.88,WSW,240,2.0,8.9,43,0.00,,,0.00,793.0,meteobridge,2013-08-31 16:44:00,
2013-08-31 11:51:00,93.0,67.3,29.88,West,266,2.0,6.0,43,0.00,,,0.00,802.0,meteobridge,2013-08-31 16:51:00,
2013-08-31 11:57:00,93.9,67.3,29.88,West,278,2.9,6.0,42,0.00,,,0.00,814.0,meteobridge,2013-08-31 16:57:00,
2013-08-31 12:03:00,94.3,67.6,29.88,SSE,153,0.9,4.9,42,0.00,,,0.00,823.0,meteobridge,2013-08-31 17:03:00,
2013-08-31 12:09:00,94.8,66.7,29.88,West,259,4.0,4.9,40,0.00,,,0.00,830.0,meteobridge,2013-08-31 17:09:00,
2013-08-31 12:15:00,95.4,68.0,29.87,WSW,257,0.9,4.0,41,0.00,,,0.00,842.0,meteobridge,2013-08-31 17:15:00,
2013-08-31 12:21:00,95.7,66.7,29.87,SSE,148,2.0,4.9,39,0.00,,,0.00,853.0,meteobridge,2013-08-31 17:21:00,
2013-08-31 12:27:00,96.3,65.7,29.87,WSW,244,0.0,4.9,37,0.00,,,0.00,863.0,meteobridge,2013-08-31 17:27:00,
2013-08-31 12:33:00,96.8,66.9,29.87,WSW,251,2.9,6.0,38,0.00,,,0.00,868.0,meteobridge,2013-08-31 17:33:00,
2013-08-31 12:40:00,96.4,65.8,29.86,WNW,289,0.0,0.9,37,0.00,,,0.00,881.0,meteobridge,2013-08-31 17:40:00,
2013-08-31 12:46:00,96.3,65.7,29.86,SW,232,2.0,2.9,37,0.00,,,0.00,932.0,meteobridge,2013-08-31 17:46:00,
2013-08-31 12:52:00,96.4,65.8,29.86,West,275,0.0,2.9,37,0.00,,,0.00,954.0,meteobridge,2013-08-31 17:52:00,
2013-08-31 12:59:00,96.4,65.1,29.85,SW,232,0.0,6.0,36,0.00,,,0.00,870.0,meteobridge,2013-08-31 17:59:00,
2013-08-31 13:05:00,96.4,65.8,29.85,NNW,327,2.0,4.9,37,0.00,,,0.00,988.0,meteobridge,2013-08-31 18:05:00,
2013-08-31 13:11:00,97.3,65.8,29.85,SW,235,4.0,4.0,36,0.00,,,0.00,1005.0,meteobridge,2013-08-31 18:11:00,
2013-08-31 13:17:00,97.0,65.7,29.85,ESE,103,0.0,4.9,36,0.00,,,0.00,276.0,meteobridge,2013-08-31 18:17:00,
2013-08-31 13:23:00,96.6,65.3,29.84,WSW,254,0.0,4.9,36,0.00,,,0.00,976.0,meteobridge,2013-08-31 18:23:00,
2013-08-31 13:30:00,97.5,66.0,29.84,East,92,2.0,4.9,36,0.00,,,0.00,1011.0,meteobridge,2013-08-31 18:30:00,
2013-08-31 13:36:00,98.4,66.0,29.84,SSE,159,2.0,4.9,35,0.00,,,0.00,1002.0,meteobridge,2013-08-31 18:36:00,
2013-08-31 13:42:00,98.8,65.5,29.83,SW,222,0.0,4.9,34,0.00,,,0.00,991.0,meteobridge,2013-08-31 18:42:00,
2013-08-31 13:48:00,99.0,64.8,29.83,ESE,122,2.9,6.0,33,0.00,,,0.00,998.0,meteobridge,2013-08-31 18:48:00,
2013-08-31 13:54:00,99.3,64.2,29.83,West,277,0.0,6.0,32,0.00,,,0.00,981.0,meteobridge,2013-08-31 18:54:00,
2013-08-31 14:00:00,99.0,63.9,29.83,SW,223,2.0,2.0,32,0.00,,,0.00,972.0,meteobridge,2013-08-31 19:00:00,
2013-08-31 14:06:00,99.1,64.0,29.83,SW,232,2.9,4.0,32,0.00,,,0.00,956.0,meteobridge,2013-08-31 19:06:00,
2013-08-31 14:12:00,99.5,64.4,29.82,SE,142,0.0,4.9,32,0.00,,,0.00,947.0,meteobridge,2013-08-31 19:12:00,
2013-08-31 14:18:00,99.9,65.7,29.82,South,173,0.9,4.0,33,0.00,,,0.00,951.0,meteobridge,2013-08-31 19:18:00,
2013-08-31 14:25:00,100.6,63.5,29.82,SSE,156,0.9,6.0,30,0.00,,,0.00,939.0,meteobridge,2013-08-31 19:25:00,
2013-08-31 14:31:00,100.8,64.6,29.81,West,263,0.9,2.9,31,0.00,,,0.00,967.0,meteobridge,2013-08-31 19:31:00,
2013-08-31 14:37:00,100.8,64.6,29.81,South,190,2.0,8.1,31,0.00,,,0.00,976.0,meteobridge,2013-08-31 19:37:00,
2013-08-31 14:43:00,100.6,64.4,29.81,WSW,251,0.0,2.9,31,0.00,,,0.00,962.0,meteobridge,2013-08-31 19:43:00,
2013-08-31 14:49:00,100.0,64.0,29.81,SE,140,0.0,4.0,31,0.00,,,0.00,724.0,meteobridge,2013-08-31 19:49:00,
2013-08-31 14:55:00,100.2,64.0,29.80,ESE,115,2.0,6.9,31,0.00,,,0.00,916.0,meteobridge,2013-08-31 19:55:00,
2013-08-31 15:01:00,100.6,63.5,29.80,ESE,118,2.0,4.0,30,0.00,,,0.00,891.0,meteobridge,2013-08-31 20:01:00,
2013-08-31 15:07:00,100.9,63.9,29.80,SE,133,6.0,6.0,30,0.00,,,0.00,872.0,meteobridge,2013-08-31 20:07:00,
2013-08-31 15:13:00,101.1,63.0,29.80,WSW,252,2.9,2.9,29,0.00,,,0.00,867.0,meteobridge,2013-08-31 20:13:00,
2013-08-31 15:19:00,100.8,62.6,29.80,WSW,254,0.0,4.9,29,0.00,,,0.00,875.0,meteobridge,2013-08-31 20:19:00,
2013-08-31 15:25:00,100.8,62.6,29.80,NNE,24,4.0,4.0,29,0.00,,,0.00,891.0,meteobridge,2013-08-31 20:25:00,
2013-08-31 15:32:00,101.1,62.1,29.79,WSW,238,0.0,6.0,28,0.00,,,0.00,875.0,meteobridge,2013-08-31 20:32:00,
2013-08-31 15:38:00,101.1,62.1,29.79,SW,215,0.9,4.9,28,0.00,,,0.00,849.0,meteobridge,2013-08-31 20:38:00,
2013-08-31 15:44:00,101.8,62.6,29.79,West,270,2.0,6.9,28,0.00,,,0.00,847.0,meteobridge,2013-08-31 20:44:00,
2013-08-31 15:50:00,101.7,62.4,29.78,West,280,6.0,6.0,28,0.00,,,0.00,824.0,meteobridge,2013-08-31 20:50:00,
2013-08-31 15:56:00,101.7,62.4,29.79,SSW,213,0.0,0.9,28,0.00,,,0.00,823.0,meteobridge,2013-08-31 20:56:00,
2013-08-31 16:03:00,102.0,61.7,29.78,West,259,2.0,4.9,27,0.00,,,0.00,793.0,meteobridge,2013-08-31 21:03:00,
2013-08-31 16:09:00,102.4,62.1,29.78,SE,138,0.9,4.0,27,0.00,,,0.00,788.0,meteobridge,2013-08-31 21:09:00,
2013-08-31 16:15:00,102.2,61.9,29.78,SW,236,0.0,6.9,27,0.00,,,0.00,735.0,meteobridge,2013-08-31 21:15:00,
2013-08-31 16:21:00,102.2,61.9,29.78,West,275,0.9,4.0,27,0.00,,,0.00,729.0,meteobridge,2013-08-31 21:21:00,
2013-08-31 16:27:00,102.4,63.1,29.78,WSW,241,0.9,4.0,28,0.00,,,0.00,719.0,meteobridge,2013-08-31 21:27:00,
2013-08-31 16:33:00,102.6,61.2,29.78,SW,216,4.9,6.9,26,0.00,,,0.00,680.0,meteobridge,2013-08-31 21:33:00,
2013-08-31 16:39:00,102.0,61.7,29.77,West,261,4.0,6.9,27,0.00,,,0.00,654.0,meteobridge,2013-08-31 21:39:00,
2013-08-31 16:46:00,101.7,62.4,29.77,West,264,0.0,2.0,28,0.00,,,0.00,629.0,meteobridge,2013-08-31 21:46:00,
2013-08-31 16:52:00,101.7,62.4,29.77,South,183,0.0,0.9,28,0.00,,,0.00,603.0,meteobridge,2013-08-31 21:52:00,
2013-08-31 16:58:00,101.8,64.6,29.77,SW,220,2.0,11.0,30,0.00,,,0.00,564.0,meteobridge,2013-08-31 21:58:00,
2013-08-31 17:04:00,102.0,62.8,29.77,South,177,0.9,6.0,28,0.00,,,0.00,559.0,meteobridge,2013-08-31 22:04:00,
2013-08-31 17:10:00,101.8,64.6,29.77,SSE,161,0.9,6.9,30,0.00,,,0.00,543.0,meteobridge,2013-08-31 22:10:00,
2013-08-31 17:16:00,101.3,64.0,29.77,SE,142,0.9,4.0,30,0.00,,,0.00,538.0,meteobridge,2013-08-31 22:16:00,
2013-08-31 17:22:00,101.1,62.1,29.76,WSW,244,2.9,4.9,28,0.00,,,0.00,501.0,meteobridge,2013-08-31 22:22:00,
2013-08-31 17:28:00,100.8,62.6,29.76,SW,215,2.9,6.0,29,0.00,,,0.00,471.0,meteobridge,2013-08-31 22:28:00,
2013-08-31 17:34:00,99.7,62.8,29.76,West,259,2.9,4.0,30,0.00,,,0.00,172.0,meteobridge,2013-08-31 22:34:00,
2013-08-31 17:41:00,99.7,63.7,29.76,SW,227,2.9,4.0,31,0.00,,,0.00,225.0,meteobridge,2013-08-31 22:41:00,
2013-08-31 17:47:00,99.1,63.1,29.76,WSW,246,4.0,6.9,31,0.00,,,0.00,120.0,meteobridge,2013-08-31 22:47:00,
2013-08-31 17:53:00,98.4,63.5,29.76,SW,223,0.0,2.9,32,0.00,,,0.00,251.0,meteobridge,2013-08-31 22:53:00,
2013-08-31 17:59:00,99.0,63.9,29.76,South,180,0.9,6.0,32,0.00,,,0.00,369.0,meteobridge,2013-08-31 22:59:00,
2013-08-31 18:05:00,99.5,63.5,29.76,SE,126,0.9,4.0,31,0.00,,,0.00,311.0,meteobridge,2013-08-31 23:05:00,
2013-08-31 18:11:00,99.3,63.3,29.76,WSW,240,2.0,2.9,31,0.00,,,0.00,260.0,meteobridge,2013-08-31 23:11:00,
2013-08-31 18:17:00,99.0,63.9,29.76,WSW,254,0.0,4.9,32,0.00,,,0.00,81.0,meteobridge,2013-08-31 23:17:00,
2013-08-31 18:23:00,97.9,63.0,29.76,WSW,246,0.0,2.9,32,0.00,,,0.00,229.0,meteobridge,2013-08-31 23:23:00,
2013-08-31 18:29:00,97.7,63.7,29.76,East,94,0.9,6.0,33,0.00,,,0.00,232.0,meteobridge,2013-08-31 23:29:00,
2013-08-31 18:36:00,97.9,63.9,29.76,SW,236,2.9,2.9,33,0.00,,,0.00,204.0,meteobridge,2013-08-31 23:36:00,
2013-08-31 18:42:00,97.9,63.9,29.76,WSW,248,0.0,4.9,33,0.00,,,0.00,165.0,meteobridge,2013-08-31 23:42:00,
2013-08-31 18:48:00,97.3,63.5,29.76,West,277,4.0,6.0,33,0.00,,,0.00,149.0,meteobridge,2013-08-31 23:48:00,
2013-08-31 18:54:00,97.0,64.0,29.76,West,271,0.0,6.9,34,0.00,,,0.00,123.0,meteobridge,2013-08-31 23:54:00,
2013-08-31 19:00:00,96.6,63.7,29.76,WSW,248,2.9,4.9,34,0.00,,,0.00,105.0,meteobridge,2013-09-01 00:00:00,
2013-08-31 19:07:00,96.3,64.2,29.76,South,171,0.9,2.0,35,0.00,,,0.00,49.0,meteobridge,2013-09-01 00:07:00,
2013-08-31 19:13:00,96.1,64.0,29.76,West,259,4.0,4.0,35,0.00,,,0.00,44.0,meteobridge,2013-09-01 00:13:00,
2013-08-31 19:19:00,95.5,63.5,29.76,South,176,0.9,4.9,35,0.00,,,0.00,37.0,meteobridge,2013-09-01 00:19:00,
2013-08-31 19:25:00,95.4,64.2,29.76,WSW,241,0.9,4.9,36,0.00,,,0.00,32.0,meteobridge,2013-09-01 00:25:00,
2013-08-31 19:31:00,94.8,63.7,29.76,SSW,201,0.0,2.0,36,0.00,,,0.00,26.0,meteobridge,2013-09-01 00:31:00,
2013-08-31 19:37:00,94.6,64.4,29.76,ESE,123,0.0,2.9,37,0.00,,,0.00,21.0,meteobridge,2013-09-01 00:37:00,
2013-08-31 19:43:00,94.3,64.0,29.76,SE,146,4.0,4.0,37,0.00,,,0.00,14.0,meteobridge,2013-09-01 00:43:00,
2013-08-31 19:49:00,93.9,63.7,29.77,SW,235,2.9,2.9,37,0.00,,,0.00,9.0,meteobridge,2013-09-01 00:49:00,
2013-08-31 19:55:00,93.6,64.2,29.77,SW,235,0.0,4.9,38,0.00,,,0.00,0.0,meteobridge,2013-09-01 00:55:00,
2013-08-31 20:02:00,93.0,64.4,29.77,SSW,211,0.9,2.9,39,0.00,,,0.00,0.0,meteobridge,2013-09-01 01:02:00,
2013-08-31 20:08:00,92.8,64.9,29.77,WSW,248,2.9,4.9,40,0.00,,,0.00,0.0,meteobridge,2013-09-01 01:08:00,
2013-08-31 20:14:00,92.5,65.3,29.77,ESE,116,0.0,0.9,41,0.00,,,0.00,0.0,meteobridge,2013-09-01 01:14:00,
2013-08-31 20:20:00,91.9,65.5,29.78,SSE,163,0.0,2.0,42,0.00,,,0.00,0.0,meteobridge,2013-09-01 01:20:00,
2013-08-31 20:26:00,91.6,65.8,29.78,South,188,0.0,4.0,43,0.00,,,0.00,0.0,meteobridge,2013-09-01 01:26:00,
2013-08-31 20:32:00,91.2,65.7,29.78,SSW,199,0.9,2.0,43,0.00,,,0.00,0.0,meteobridge,2013-09-01 01:32:00,
2013-08-31 20:39:00,90.9,65.8,29.78,SE,131,0.0,2.0,44,0.00,,,0.00,0.0,meteobridge,2013-09-01 01:39:00,
2013-08-31 20:45:00,90.5,66.2,29.78,WSW,239,0.0,2.0,45,0.00,,,0.00,0.0,meteobridge,2013-09-01 01:45:00,
2013-08-31 20:51:00,90.1,65.8,29.78,SW,227,0.0,2.9,45,0.00,,,0.00,0.0,meteobridge,2013-09-01 01:51:00,
2013-08-31 20:58:00,90.0,66.4,29.79,SW,227,0.0,0.0,46,0.00,,,0.00,0.0,meteobridge,2013-09-01 01:58:00,
2013-08-31 21:04:00,89.6,66.0,29.79,SSW,192,0.0,0.0,46,0.00,,,0.00,0.0,meteobridge,2013-09-01 02:04:00,
2013-08-31 21:10:00,89.2,66.4,29.80,SE,132,0.9,2.0,47,0.00,,,0.00,0.0,meteobridge,2013-09-01 02:10:00,
2013-08-31 21:16:00,89.2,66.4,29.80,SE,132,2.0,4.9,47,0.00,,,0.00,0.0,meteobridge,2013-09-01 02:16:00,
2013-08-31 21:22:00,89.2,66.9,29.80,SSE,165,0.0,2.0,48,0.00,,,0.00,0.0,meteobridge,2013-09-01 02:22:00,
2013-08-31 21:29:00,89.1,66.7,29.80,SW,223,0.0,2.9,48,0.00,,,0.00,0.0,meteobridge,2013-09-01 02:29:00,
2013-08-31 21:35:00,88.9,66.6,29.80,South,186,0.0,2.9,48,0.00,,,0.00,0.0,meteobridge,2013-09-01 02:35:00,
2013-08-31 21:42:00,88.7,67.1,29.80,South,173,0.0,0.9,49,0.00,,,0.00,0.0,meteobridge,2013-09-01 02:42:00,
2013-08-31 21:48:00,88.5,66.9,29.80,SW,234,0.0,0.9,49,0.00,,,0.00,0.0,meteobridge,2013-09-01 02:48:00,
2013-08-31 21:54:00,88.2,67.1,29.80,WSW,237,0.0,2.0,50,0.00,,,0.00,0.0,meteobridge,2013-09-01 02:54:00,
2013-08-31 22:01:00,88.0,66.9,29.80,SW,222,0.0,2.0,50,0.00,,,0.00,0.0,meteobridge,2013-09-01 03:01:00,
2013-08-31 22:07:00,87.6,67.3,29.80,West,261,0.0,2.9,51,0.00,,,0.00,0.0,meteobridge,2013-09-01 03:07:00,
2013-08-31 22:13:00,87.6,67.3,29.80,SW,236,4.0,4.9,51,0.00,,,0.00,0.0,meteobridge,2013-09-01 03:13:00,
2013-08-31 22:19:00,87.6,67.3,29.81,SW,234,0.0,4.0,51,0.00,,,0.00,0.0,meteobridge,2013-09-01 03:19:00,
2013-08-31 22:25:00,87.4,67.1,29.81,SW,229,0.9,2.0,51,0.00,,,0.00,0.0,meteobridge,2013-09-01 03:25:00,
2013-08-31 22:31:00,87.4,67.1,29.81,West,264,0.9,2.0,51,0.00,,,0.00,0.0,meteobridge,2013-09-01 03:31:00,
2013-08-31 22:37:00,87.3,66.9,29.81,SW,236,4.0,4.9,51,0.00,,,0.00,0.0,meteobridge,2013-09-01 03:37:00,
2013-08-31 22:43:00,87.1,67.3,29.81,West,265,0.9,2.9,52,0.00,,,0.00,0.0,meteobridge,2013-09-01 03:43:00,
2013-08-31 22:50:00,86.9,67.1,29.81,SW,226,2.9,4.9,52,0.00,,,0.00,0.0,meteobridge,2013-09-01 03:50:00,
2013-08-31 22:56:00,86.7,66.9,29.80,WSW,251,2.0,6.0,52,0.00,,,0.00,0.0,meteobridge,2013-09-01 03:56:00,
2013-08-31 23:02:00,86.5,66.7,29.80,SW,223,0.0,4.0,52,0.00,,,0.00,0.0,meteobridge,2013-09-01 04:02:00,
2013-08-31 23:04:00,86.5,66.7,29.80,WSW,243,0.9,4.0,52,0.00,,,0.00,0.0,meteobridge,2013-09-01 04:04:00,
2013-08-31 23:06:00,86.4,66.7,29.80,West,261,2.9,2.9,52,0.00,,,0.00,0.0,meteobridge,2013-09-01 04:06:00,
2013-08-31 23:12:00,86.2,67.1,29.80,WSW,250,2.9,2.9,53,0.00,,,0.00,0.0,meteobridge,2013-09-01 04:12:00,
2013-08-31 23:18:00,85.6,66.6,29.80,WSW,250,0.9,2.0,53,0.00,,,0.00,0.0,meteobridge,2013-09-01 04:18:00,
2013-08-31 23:24:00,85.6,66.6,29.80,WSW,245,0.9,2.9,53,0.00,,,0.00,0.0,meteobridge,2013-09-01 04:24:00,
2013-08-31 23:28:00,85.5,66.4,29.80,WSW,238,2.9,6.9,53,0.00,,,0.00,0.0,meteobridge,2013-09-01 04:28:00,
2013-08-31 23:34:00,85.3,66.7,29.80,SW,222,0.9,4.0,54,0.00,,,0.00,0.0,meteobridge,2013-09-01 04:34:00,
2013-08-31 23:41:00,85.1,66.6,29.80,West,259,0.0,2.0,54,0.00,,,0.00,0.0,meteobridge,2013-09-01 04:41:00,
2013-08-31 23:47:00,84.9,66.4,29.80,WSW,253,0.9,2.0,54,0.00,,,0.00,0.0,meteobridge,2013-09-01 04:47:00,
2013-08-31 23:53:00,84.7,66.7,29.80,WSW,244,2.0,2.0,55,0.00,,,0.00,0.0,meteobridge,2013-09-01 04:53:00,
2013-08-31 23:59:00,84.6,66.6,29.80,SW,230,0.0,2.9,55,0.00,,,0.00,0.0,meteobridge,2013-09-01 04:59:00,